Flag for Canada Weather past 2 weeks in Oakville, Ontario, Canada

Now
48 °F

Cool.


Feels Like: 45 °F
Forecast: 41 / 58 °F
Wind: 7 mph from Southwest

Location: Burlington Piers

Current Time: Oct 24, 2014 at 12:37:33 PM

Latest Report: Oct 24, 2014 at 12:00 PM


Visibility: N/A

Pressure: 30.04 "Hg

Humidity: 72%

Dew point: 40 °F

Location of OakvilleLocation

Historic Weather in Oakville — Graph

°F

Oakville temperature yesterday

Maximum temperature yesterday: 56 °F (at 12:00 PM)
Minimum temperature yesterday: 48 °F (at 7:00 AM)
Average temperature yesterday: 51 °F

Past Weeks' High & Low Weather Summary

 TemperatureHumidityPressure
High76 °F (Oct 14, 3:00 PM)100% (Oct 16, 10:00 AM)30.29 "Hg (Oct 16, 10:00 AM)
Low40 °F (Oct 19, 10:00 AM)35% (Oct 11, 5:00 PM)29.48 "Hg (Oct 17, 10:00 PM)
Average52 °F74%29.95 "Hg
* Reported Oct 9 11:00 AM — Oct 24 11:00 AM, Oakville, Weather by CustomWeather, © 2014

Note: Actual official high and low records may vary slightly from our data, if they occured in-between our weather recording intervals... More about our weather records

Advertising

Oakville weather history for previous 24 hours

 ConditionsComfort  
Time TempWeatherWind HumidityBarometerVisibility
11:00 AM
Oct 24
44 °FQuite cool.8 mph83%30.06 "HgN/A
10:00 AM43 °FQuite cool.8 mph80%30.07 "HgN/A
9:00 AM41 °FQuite cool.8 mph82%30.07 "HgN/A
8:00 AM43 °FQuite cool.3 mph81%30.06 "HgN/A
7:00 AM43 °FQuite cool.5 mph80%30.06 "HgN/A
5:00 AM45 °FQuite cool.5 mph82%30.06 "HgN/A
4:00 AM45 °FCool.3 mph80%30.04 "HgN/A
3:00 AM47 °FCool.3 mph73%30.04 "HgN/A
2:00 AM47 °FCool.5 mph79%30.05 "HgN/A
1:00 AM48 °FCool.5 mph75%30.05 "HgN/A
12:00 AM49 °FCool.3 mph74%30.05 "HgN/A
11:00 PM
Oct 23
51 °FCool.7 mph69%30.06 "HgN/A
10:00 PM51 °FCool.9 mph65%30.06 "HgN/A
9:00 PM52 °FCool.13 mph61%30.06 "HgN/A
8:00 PM54 °FCool.13 mph57%30.06 "HgN/A
7:00 PM53 °FCool.2 mph65%30.06 "HgN/A
6:00 PM52 °FCool.1 mph69%30.06 "HgN/A
2:00 PM52 °FCool.8 mph67%30.10 "HgN/A
1:00 PM54 °FCool.6 mph61%30.11 "HgN/A
12:00 PM56 °FRefreshingly cool.10 mph52%30.14 "HgN/A
Weather by CustomWeather, © 2014

See weather overviewHow to use our weather pages